Fort Wayne, IN

1:30 AM EST on November 18, 2019 (GMT -0500)
Fort Wayne International

Weather History for KFWA - September, 2019

Change the Weather History Date:

Monday, September 16, 2019

  Actual Average Record
Temperature  
Mean Temperature 73 °F 64 °F  
Max Temperature 85 °F 76 °F 96 °F (1939)
Min Temperature 61 °F 53 °F 38 °F (1966)
Degree Days  
Heating Degree Days 0 3  
Month to date heating degree days 10 28  
Since 1 July heating degree days 11 40  
Cooling Degree Days 8 2  
Month to date cooling degree days 73 61  
Year to date cooling degree days 911 778  
Growing Degree Days 22 (Base 50)    
Moisture  
Dew Point 64 °F    
Average Humidity 76    
Maximum Humidity 100    
Minimum Humidity 51    
Precipitation  
Precipitation 0.00 in 0.09 in 1.21 in (1969)
Month to date precipitation 0.82 1.51  
Year to date precipitation 29.09 28.35  
Sea Level Pressure  
Sea Level Pressure 30.08 in    
Wind  
Wind Speed 4 mph (NNE)    
Max Wind Speed 15 mph    
Max Gust Speed 20 mph    
Visibility 10 miles    
Events      
T = Trace of Precipitation, MM = Missing Value Source: NWS Daily Summary

Daily Weather History Graph

Daily Weather History Graph

Search for Another Location

Airport or City:

Astronomy

Sep. 16, 2019 Rise Set
Actual Time 7:22 AM EDT 7:48 PM EDT
Civil Twilight 6:54 AM EDT 8:16 PM EDT
Nautical Twilight 6:22 AM EDT 8:48 PM EDT
Astronomical Twilight 5:48 AM EDT 9:21 PM EDT
Moon 9:21 PM EDT (9/16) 9:29 AM EDT (9/16)
Length of Visible Light 13h 21m
Length of Day
12h 26m
Waning Gibbous, 94% of the Moon is Illuminated
Sep 16
Waning Gibbous
Sep 21
Last Quarter
Sep 28
New
Oct 5
First Quarter
Oct 13
Full

Hourly Weather History & Observations

Time (EDT) Temp. Heat Index Dew Point Humidity Pressure Visibility Wind Dir Wind Speed Gust Speed Precip Events Conditions
12:54 AM 68.0 °F - 64.0 °F 87% 30.04 in 10.0 mi South 3.5 mph - N/A   Overcast
1:54 AM 66.0 °F - 63.0 °F 90% 30.04 in 10.0 mi SSW 3.5 mph - N/A   Mostly Cloudy
2:54 AM 64.9 °F - 62.1 °F 90% 30.04 in 10.0 mi SSW 4.6 mph - N/A   Scattered Clouds
3:54 AM 64.0 °F - 62.1 °F 93% 30.04 in 10.0 mi Calm Calm - N/A   Mostly Cloudy
4:54 AM 63.0 °F - 61.0 °F 93% 30.04 in 10.0 mi Calm Calm - N/A   Scattered Clouds
5:54 AM 61.0 °F - 60.1 °F 97% 30.05 in 10.0 mi Calm Calm - N/A   Partly Cloudy
6:54 AM 61.0 °F - 60.1 °F 97% 30.06 in 10.0 mi Calm Calm - N/A   Partly Cloudy
7:35 AM 61.0 °F - 60.1 °F 97% 30.09 in 10.0 mi Calm Calm - N/A   Mostly Cloudy
7:54 AM 62.1 °F - 61.0 °F 96% 30.09 in 10.0 mi Calm Calm - N/A   Overcast
8:54 AM 66.9 °F - 64.0 °F 90% 30.10 in 10.0 mi Calm Calm - N/A   Overcast
9:54 AM 72.0 °F - 66.0 °F 81% 30.10 in 10.0 mi North 4.6 mph - N/A   Scattered Clouds
10:31 AM 75.0 °F - 66.0 °F 73% 30.11 in 10.0 mi North 4.6 mph - N/A   Mostly Cloudy
10:47 AM 75.9 °F - 66.9 °F 74% 30.11 in 10.0 mi Variable 3.5 mph - N/A   Scattered Clouds
10:54 AM 77.0 °F - 66.9 °F 71% 30.10 in 10.0 mi East 4.6 mph - N/A   Scattered Clouds
11:46 AM 77.0 °F - 66.9 °F 71% 30.11 in 10.0 mi NE 4.6 mph - N/A   Mostly Cloudy
11:54 AM 78.1 °F - 66.9 °F 68% 30.09 in 10.0 mi Calm Calm - N/A   Mostly Cloudy
12:54 PM 77.0 °F - 66.9 °F 71% 30.10 in 10.0 mi Calm Calm - N/A   Mostly Cloudy
1:23 PM 80.1 °F 82.7 °F 68.0 °F 67% 30.10 in 10.0 mi Calm Calm - N/A   Mostly Cloudy
1:54 PM 81.0 °F 84.1 °F 69.1 °F 67% 30.08 in 10.0 mi Calm Calm - N/A   Mostly Cloudy
2:54 PM 82.0 °F 84.1 °F 66.0 °F 58% 30.07 in 10.0 mi North 3.5 mph - N/A   Scattered Clouds
3:54 PM 82.9 °F 84.0 °F 63.0 °F 51% 30.05 in 10.0 mi West 3.5 mph - N/A   Scattered Clouds
4:54 PM 84.0 °F 86.3 °F 66.0 °F 55% 30.05 in 10.0 mi Variable 5.8 mph - N/A   Scattered Clouds
5:54 PM 82.0 °F 83.4 °F 64.0 °F 54% 30.05 in 10.0 mi North 6.9 mph - N/A   Scattered Clouds
6:54 PM 79.0 °F - 66.0 °F 64% 30.06 in 10.0 mi NE 9.2 mph - N/A   Partly Cloudy
7:54 PM 75.9 °F - 64.9 °F 69% 30.07 in 10.0 mi North 11.5 mph - N/A   Scattered Clouds
8:54 PM 73.9 °F - 64.0 °F 71% 30.08 in 10.0 mi NNE 9.2 mph - N/A   Partly Cloudy
9:54 PM 71.1 °F - 64.0 °F 78% 30.09 in 10.0 mi NNE 6.9 mph - N/A   Partly Cloudy
10:54 PM 69.1 °F - 63.0 °F 81% 30.11 in 10.0 mi NNE 8.1 mph - N/A   Partly Cloudy
11:54 PM 68.0 °F - 63.0 °F 84% 30.11 in 10.0 mi NE 6.9 mph - N/A   Scattered Clouds